Regional Weather Roundup
Issued by NWS

Home | Current Version | Previous Version | Text Only | Print | Product List | Glossary Off
Versions: 1 2 3 4 5 6 7 8 9 10 11 12 13 14 15 16 17 18 19 20 21 22 23 24 25 26 27 28 29 30 31 32 33 34 35 36 37 38 39 40 41 42 43 44 45 46 47 48 49 50

000
ASUS43 KIND 191159
RWRIN

WEATHER ROUNDUP FOR INDIANA
NATIONAL WEATHER SERVICE INDIANAPOLIS IN
700 AM EST FRI DEC 19 2014

NOTE: "FAIR" INDICATES FEW OR NO CLOUDS BELOW 12,000 FEET WITH NO
SIGNIFICANT WEATHER AND/OR OBSTRUCTIONS TO VISIBILITY.

* - STATION DOES NOT REPORT WEATHER SUCH AS PRECIPITATION OR FOG.

+ - STATION NOT QUALITY CONTROLLED BY THE NATIONAL WEATHER SERVICE.
    USE DATA WITH CAUTION...ESPECIALLY DEWPOINT AND RELATIVE
    HUMIDITY OBSERVATIONS.

INZ001>003-010>013-019-020-191300-
NORTHWEST INDIANA

CITY           SKY/WX    TMP DP  RH WIND       PRES   REMARKS
GARY /AIRPORT/ CLOUDY    30  21  69 W3        30.28S
KNOX *+        CLOUDY    28  22  81 W5        30.26R WCI  22
MONTICELLO +   CLOUDY    25  22  88 NW3       30.27S
VALPARAISO     NOT AVBL

$$

LMZ046-743>745-191300-
SOUTHERN LAKE MICHIGAN

STATION/POSITION TIME  TEMP WIND        PRES
                       AIR  DIR/SP/G
                 (UTC) (F)  (DEG/KT/KT) (MB)

$$

INZ004-005-014>016-021>024-191300-
NORTH CENTRAL INDIANA

CITY           SKY/WX    TMP DP  RH WIND       PRES   REMARKS
ELKHART        CLOUDY    27  21  80 CALM      30.26
GOSHEN         CLOUDY    27  23  85 CALM      30.24S
6HR MIN TEMP:  26; 6HR MAX TEMP:  27;

SOUTH BEND     CLOUDY    28  24  85 CALM      30.25R
6HR MIN TEMP:  27; 6HR MAX TEMP:  28; 6HR PCP: TRACE;

WARSAW +       CLOUDY    27  23  86 W3        30.25S

$$

INZ006>009-017-018-025>027-191300-
NORTHEAST INDIANA

CITY           SKY/WX    TMP DP  RH WIND       PRES   REMARKS
ANGOLA *+      CLOUDY    27  23  86 W6        30.23R WCI  20
FORT WAYNE     CLOUDY    26  21  81 W6        30.27R WCI  19
6HR MIN TEMP:  26; 6HR MAX TEMP:  27;


$$

INZ028-029-035-036-043>045-051>053-191300-
WEST CENTRAL INDIANA

CITY           SKY/WX    TMP DP  RH WIND       PRES   REMARKS
GREENCASTLE +  CLOUDY    23  18  80 CALM      30.29R
LAFAYETTE      CLOUDY    21  19  92 CALM      30.29R
6HR MIN TEMP:  17; 6HR MAX TEMP:  21;

TERRE HAUTE    CLEAR     22  19  89 N3        30.29F
6HR MIN TEMP:  22; 6HR MAX TEMP:  28;


$$

INZ030>032-037>040-046>048-054>057-064-065-191300-
CENTRAL INDIANA

CITY           SKY/WX    TMP DP  RH WIND       PRES   REMARKS
COLUMBUS       CLEAR     21  19  93 CALM      30.29
FRANKFORT +    CLOUDY    24  24 100 SW3       30.29R
INDIANAPOLIS   PTCLDY    20  17  88 NW6       30.27R WCI  12
6HR MIN TEMP:  19; 6HR MAX TEMP:  23;

-EAGLE CREEK   MOCLDY    22  19  89 NW6       30.27R WCI  14
6HR MIN TEMP:  21; 6HR MAX TEMP:  23;

KOKOMO *+      CLOUDY    27  19  74 NW6       30.26S WCI  20
MT COMFORT *+  CLOUDY    23  23 100 W3        30.28R
SHELBYVILLE    CLEAR     22  17  81 CALM      30.27R
6HR MIN TEMP:  22; 6HR MAX TEMP:  29;


$$

INZ033-034-041-042-049-050-058-059-191300-
EAST CENTRAL INDIANA

CITY           SKY/WX    TMP DP  RH WIND       PRES   REMARKS
MUNCIE         CLOUDY    26  20  77 NW5       30.26R WCI  20
6HR MIN TEMP:  25; 6HR MAX TEMP:  26;


$$

INZ060-061-067>069-081>083-085>088-191300-
SOUTHWEST INDIANA

CITY           SKY/WX    TMP DP  RH WIND       PRES   REMARKS
EVANSVILLE     CLOUDY    32  24  72 NE7       30.28F WCI  26
6HR MIN TEMP:  32; 6HR MAX TEMP:  33;

HUNTINGBURG *+ CLOUDY    28  21  74 NE9       30.28S WCI  20
6HR MIN TEMP:  28; 6HR MAX TEMP:  30;


$$

INZ062-063-066-070>080-084-089>092-191300-
SOUTH CENTRAL AND SOUTHEAST INDIANA

CITY           SKY/WX    TMP DP  RH WIND       PRES   REMARKS
BLOOMINGTON    CLOUDY    26  22  84 N8        30.27S WCI  18
6HR MIN TEMP:  22; 6HR MAX TEMP:  27;


$$



USA.gov is the U.S. government's official web portal to all federal, state and local government web resources and services.